Location: Cofous
(44.4000°N, 6.7667°E)
Time: 17:24:32
(UTC+00:00)

Daily predictions for brighter satellites

Satellite Brightness Start Highest point End
(mag) Time Altitude Azimuth Time Altitude Azimuth Time Altitude Azimuth
Resurs 01 Rocket 1.7 19:50:56 10° SSE 19:55:16 63° ENE 19:59:39 10° N
OBJECT-B 2.9 19:53:30 10° SSW 19:56:15 26° W 19:59:01 10° NW
Cosmos 2227 4.3 19:52:29 10° NNW 19:58:09 85° WSW 20:03:46 10° SSE
Cosmos 1975 Rocket 4.1 19:58:44 10° SSE 20:02:25 27° E 20:06:08 10° NNE
Cosmos 1470 2.8 20:01:41 10° N 20:05:41 85° E 20:09:37 10° S
Meteor 1-21 4.2 20:00:50 10° S 20:06:29 76° E 20:12:07 10° NNE
Cosmos 1674 3.9 20:03:56 10° SE 20:06:54 23° E 20:09:53 10° NE
SPOT 5 4.4 20:02:56 10° ESE 20:06:59 24° ENE 20:10:53 10° NNE
ATLAS CENTAUR R/B 3.8 20:04:30 10° N 20:07:09 16° NE 20:09:53 10° ENE
Cosmos 1980 Rocket 4.1 20:04:32 10° WSW 20:09:39 35° NW 20:14:48 10° N
Cosmos 1674 Rocket 4.2 20:05:47 10° SSW 20:10:08 59° W 20:14:29 10° N
Terra 3.6 20:11:07 10° ESE 20:14:27 19° ENE 20:17:47 10° NNE
Cosmos 1726 2.4 20:15:18 10° NNW 20:18:55 67° W 20:22:31 10° S
Lacrosse 5 2.0 20:15:12 10° NW 20:20:14 68° SW 20:24:51 12° SE
Cosmos 1315 Rocket 3.1 20:17:23 10° NNW 20:21:32 74° W 20:25:37 10° S
Cosmos 1452 Rocket 3.5 20:19:54 10° SSW 20:25:09 74° ESE 20:30:26 10° NNE
Cosmos 1844 Rocket 3.4 20:20:39 10° NNW 20:26:04 43° ENE 20:30:54 13° SE
SL-8 R/B 4.1 20:22:44 10° WNW 20:27:31 63° NNE 20:32:16 10° E
Cosmos 2100 Rocket 4.3 20:24:37 10° N 20:30:52 54° ENE 20:36:22 13° SSE
ARIANE 5 R/B 3.1 20:29:10 14° SE 20:32:50 48° ENE 20:37:10 10° N
NOSS 3-2 (C) 4.0 20:27:30 10° SW 20:33:04 60° NW 20:39:31 10° NNE
Cosmos 1340 4.4 20:32:11 14° ESE 20:33:47 18° E 20:36:20 10° NE
Cosmos 1850 Rocket 4.1 20:30:29 10° NNW 20:35:48 72° ENE 20:40:12 15° SSE
FALCON 9 DEB 3.0 20:33:35 10° SW 20:37:00 70° SE 20:40:24 10° ENE
ATLAS 3B R/B 3.3 20:31:42 10° S 20:37:18 31° ESE 20:43:02 10° NE
Cosmos 1908 3.7 20:34:35 10° N 20:38:20 45° ENE 20:40:58 17° SE
SPOT 1/Viking Rocket 3.6 20:33:46 11° SSE 20:38:48 88° WSW 20:43:59 10° NNW
Cosmos 2263 Rocket 3.5 20:34:11 10° NW 20:39:18 35° WSW 20:44:23 10° SSW
FALCON 9 DEB 4.2 20:40:01 20° SE 20:40:01 20° SE 20:42:15 10° E
Cosmos 1758 3.8 20:36:37 10° NNW 20:40:32 60° W 20:44:26 10° S
Geosat 4.2 20:37:26 15° SE 20:41:32 60° ENE 20:46:30 10° NNW
Landsat 7 4.5 20:37:25 10° S 20:42:04 54° W 20:46:44 10° NNW
Spot 2 Rocket 3.5 20:40:28 14° SSE 20:44:47 75° ENE 20:49:52 10° N
Cosmos 1544 Rocket 4.2 20:41:14 10° N 20:45:29 41° ENE 20:48:22 18° SE
CZ-2C R/B 4.0 20:41:15 10° N 20:46:03 79° WNW 20:50:48 10° SSW
Cosmos 1707 3.9 20:42:27 10° SSW 20:46:09 43° WNW 20:49:53 10° N
Lacrosse 5 rocket 1.3 20:44:01 10° SSW 20:47:33 43° SE 20:50:59 10° ENE
ERS-1 Rocket 3.3 20:44:31 16° SE 20:48:19 55° ENE 20:53:15 10° N
Cosmos 2173 Rocket 4.1 20:42:32 10° N 20:48:55 68° E 20:54:10 16° SSE
Cosmos 1331 Rocket 4.2 20:43:56 10° S 20:48:59 54° ESE 20:54:08 10° NNE
In-Cosmos 22 4.2 20:43:44 10° SSW 20:49:01 78° W 20:54:19 10° N
FALCON 9 DEB 4.3 20:50:01 21° ESE 20:50:01 21° ESE 20:51:49 10° E
Cosmos 1455 Rocket 3.1 20:45:55 10° N 20:50:24 77° E 20:53:47 17° SSE
Cosmos 2016 Rocket 4.4 20:46:06 10° N 20:51:58 47° ENE 20:56:18 18° SE
BREEZE-M DEB (TANK) 1.5 20:57:15 10° SW 20:59:34 55° SE 21:03:36 10° ENE
Cosmos 2333 Rocket 2.7 20:55:53 15° S 21:00:11 40° ESE 21:05:29 10° NE
Cosmos 1727 Rocket 4.5 20:54:13 10° SSW 21:00:29 63° W 21:06:44 10° N
USA 215 3.9 20:56:34 10° ENE 21:02:18 32° SE 21:08:01 10° S
Cosmos 1725 Rocket 4.3 20:58:07 10° N 21:04:08 51° ENE 21:08:13 21° SE
Cosmos 1626 2.0 21:04:14 21° S 21:06:32 70° E 21:10:14 10° NNE
Cosmos 1953 2.5 21:03:32 10° NNW 21:07:35 71° W 21:10:22 19° S
Cosmos 1741 Rocket 4.3 21:03:20 10° NNW 21:08:32 63° WSW 21:12:22 18° S
SL-14 R/B 3.6 21:08:38 25° SSE 21:10:38 49° E 21:14:32 10° NNE
Cosmos 2219 Rocket 2.7 21:07:37 19° SSE 21:11:16 41° ESE 21:16:34 10° NE
Cosmos 1844 3.7 21:07:32 10° NNW 21:13:08 81° ENE 21:16:41 23° SSE
CENTAUR R/B 4.4 21:11:27 10° W 21:17:02 34° NW 21:23:36 10° NNE
Cosmos 1536 Rocket 3.9 21:15:05 26° SSE 21:17:20 50° E 21:21:39 10° NNE
Cosmos 1802 Rocket 4.0 21:12:46 10° N 21:19:05 89° ENE 21:23:39 20° S
CZ-4B DEB 4.4 21:19:02 37° SE 21:20:00 57° ENE 21:23:08 10° N
Meteor 1-24 Rocket 4.2 21:21:07 25° SE 21:23:40 41° E 21:28:45 10° NNE
DNEPR-1 R/B 4.0 21:20:10 10° NNW 21:24:19 52° NE 21:26:37 25° ESE
Cosmos 1025 Rocket 3.3 21:22:42 16° SSW 21:26:09 70° W 21:30:31 10° N
Cosmos 2237 Rocket 3.8 21:27:22 16° ESE 21:28:07 17° E 21:31:31 10° ENE
Cosmos 389 Rocket 4.2 21:27:01 10° NNE 21:29:32 19° ENE 21:30:14 18° E
Aureole 1 Rocket 4.3 21:24:48 10° NNW 21:30:43 67° WSW 21:35:49 21° S
Resurs 01 Rocket 4.2 21:30:05 10° WSW 21:32:12 13° W 21:34:18 10° WNW
Cosmos 1459 Rocket 4.4 21:27:21 10° NNW 21:33:16 58° W 21:37:54 17° SSW
Cosmos 2360 Rocket 2.9 21:28:07 10° SW 21:33:38 55° WNW 21:39:11 10° NNE
SL-16 R/B 4.3 21:29:05 10° WSW 21:33:55 28° NW 21:38:46 10° N
Cosmos 1461 3.4 21:30:32 10° NW 21:34:34 46° WSW 21:36:05 30° S
Cosmos 2228 4.1 21:31:26 10° N 21:35:24 32° ENE 21:36:56 25° ESE
Cosmos 2322 Rocket 3.9 21:30:46 10° WSW 21:35:53 33° NW 21:41:03 10° N
USA 267 4.4 21:30:11 10° E 21:36:11 40° NNE 21:42:11 10° NW
Cosmos 1900 4.3 21:37:58 10° NW 21:42:53 72° WSW 21:44:58 34° SSE
SPOT 5 3.7 21:41:31 20° SSW 21:44:47 47° W 21:49:34 10° NNW
Cosmos 1455 4.1 21:42:12 10° NNE 21:44:53 18° ENE 21:45:44 17° E
ATLAS CENTAUR R/B 1.5 21:42:14 10° NW 21:46:37 86° NE 21:48:22 37° SE
Cosmos 968 Rocket 3.6 21:46:11 10° NNW 21:51:16 65° ENE 21:53:28 33° SE
Terra 2.3 21:49:22 27° SSW 21:51:47 54° W 21:56:28 10° NNW
COSMOS 2428 2.7 21:48:21 23° S 21:51:58 71° ESE 21:57:42 10° NNE
Cosmos 1300 2.8 21:49:35 10° NNW 21:53:23 70° W 21:54:30 43° SSW
Cosmos 2322 3.8 21:48:35 12° SSW 21:53:47 79° WNW 21:59:29 10° NNE
FALCON 9 DEB 2.8 21:54:51 72° E 21:54:51 72° E 21:57:47 10° ENE
Cosmos 2061 Rocket 4.3 21:48:49 10° NNW 21:55:11 64° W 21:59:12 23° SSW
Cosmos 1992 Rocket 4.4 21:54:04 34° SE 21:55:35 43° ESE 22:00:32 10° NNE
Uosat 12 SS-18 rocket 4.1 21:54:41 35° S 21:56:24 64° ESE 22:01:15 10° NE
SL-24 R/B 4.4 21:54:14 10° N 21:59:05 74° W 22:01:30 29° SSW
ATLAS CENTAUR R/B 4.0 21:59:32 24° ESE 22:00:25 25° ESE 22:07:45 10° NE
Cosmos 405 3.8 21:57:44 10° NNW 22:01:01 42° W 22:01:49 35° SW
Cosmos 2278 Rocket 3.0 21:55:38 10° NNW 22:01:03 43° ENE 22:04:01 24° ESE
Lacrosse 5 4.1 22:00:47 10° W 22:02:21 11° WSW 22:03:54 10° SW
Cosmos 2058 Rocket 4.4 22:02:18 10° NNE 22:06:06 27° ENE 22:07:18 24° E
Cosmos 1340 4.2 22:06:53 17° SW 22:09:06 31° WNW 22:12:30 10° N
Cosmos 1844 Rocket 4.0 22:04:53 10° NW 22:09:46 30° WSW 22:12:33 20° SSW
SL-8 R/B 3.9 22:05:24 10° WNW 22:10:02 50° SSW 22:10:57 44° S
Cosmos 1346 Rocket 2.7 22:11:16 56° SSE 22:12:02 77° E 22:16:04 10° NNE
Cosmos 967 Rocket 4.5 22:06:04 10° NNW 22:12:28 83° ENE 22:15:34 33° SE
Cosmos 1726 Rocket 4.0 22:09:27 10° N 22:13:49 52° ENE 22:14:53 41° ESE
GEOS 3 Rocket 3.8 22:11:17 30° SE 22:13:59 71° NE 22:19:18 10° NNW
Cosmos 2233 Rocket 4.0 22:08:07 10° NNW 22:14:15 74° W 22:17:17 32° S
FALCON 9 DEB 3.7 22:12:16 10° WSW 22:15:17 51° NNW 22:18:19 10° NE
Cosmos 1447 Rocket 4.4 22:15:10 31° S 22:18:23 89° W 22:24:37 10° N
FALCON 9 DEB 3.3 22:18:01 35° W 22:19:04 60° NNW 22:22:10 10° NE
NOSS 0 Rocket 4.0 22:16:43 35° S 22:19:15 60° ESE 22:25:24 10° NNE
SL-4 R/B 3.6 22:22:18 20° E 22:22:18 20° E 22:23:40 10° ENE
Meteor 2-5 Rocket 4.4 22:18:55 20° SW 22:22:37 50° WNW 22:28:04 10° N
FALCON 9 DEB 3.9 22:21:45 10° WSW 22:24:45 46° NNW 22:27:46 10° NE
Lacrosse 5 rocket 3.2 22:23:33 10° W 22:26:43 27° NNW 22:29:51 10° NNE
ATLAS 3B R/B 3.2 22:21:10 10° SW 22:27:36 57° NW 22:34:17 10° NNE
Cosmos 1606 Rocket 3.5 22:23:45 10° N 22:28:15 86° W 22:29:16 54° S
Cosmos 1892 Rocket 3.6 22:29:33 53° SE 22:30:18 63° E 22:34:42 10° NNE
SJ 16-02 3.9 22:29:38 10° NNE 22:31:41 13° NE 22:33:44 10° E
ALOS 2 3.2 22:32:40 38° ESE 22:33:43 46° ENE 22:37:56 10° N
Cosmos 1980 3.7 22:36:00 42° S 22:37:50 66° ESE 22:43:28 10° NNE
Cosmos 1441 Rocket 4.1 22:38:21 36° E 22:38:21 36° E 22:41:46 10° NNE
Cosmos 1703 3.9 22:39:40 40° E 22:39:41 40° E 22:43:24 10° NNE
Meteor 2-1 Rocket 4.4 22:34:54 10° N 22:40:20 58° ENE 22:42:13 39° SE
Cosmos 1943 Rocket 4.2 22:36:19 10° N 22:40:22 20° NE 22:44:23 10° E
Spot 4 3.7 22:39:08 51° S 22:40:22 85° WSW 22:45:12 10° NNW
Cosmos 1503 Rocket 4.0 22:36:45 10° NNW 22:42:10 79° ENE 22:43:52 45° SSE
Cosmos 2333 Rocket 3.6 22:39:16 10° WSW 22:44:30 35° NW 22:49:45 10° NNE
USA 215 3.3 22:39:09 10° NE 22:45:42 79° NW 22:52:14 10° WSW
Meteor 2-10 Rocket 4.3 22:48:34 10° NNW 22:53:17 40° W 22:54:49 31° SW
Cosmos 2219 Rocket 3.7 22:50:11 10° WSW 22:55:18 33° NW 23:00:26 10° N
Cosmos 1464 Rocket 4.0 22:53:14 10° N 22:59:38 89° W 23:02:03 42° S
Cosmos 1626 Rocket 4.1 22:59:58 43° ESE 23:00:24 45° E 23:04:39 10° NNE
Cosmos 1867 3.8 22:55:20 10° NW 23:00:40 54° WSW 23:01:49 45° SSW
Cosmos 1607 3.9 22:56:02 10° NW 23:02:29 88° ENE 23:05:04 39° SE
Cosmos 2346 Rocket 4.4 23:00:49 43° S 23:02:59 82° E 23:09:11 10° N
Thor Agena Rocket 4.2 22:58:44 10° NNE 23:03:41 41° E 23:04:38 37° SE
Cosmos 389 Rocket 4.1 23:01:20 10° NW 23:04:01 24° W 23:04:01 24° W
COBE Rocket 4.0 23:04:31 50° SSW 23:05:44 68° W 23:10:43 10° NNW
SL-16 R/B 2.9 23:06:18 35° SE 23:07:12 37° ESE 23:12:23 10° NE
Cosmos 1602 Rocket 4.4 23:06:53 37° ESE 23:07:20 38° E 23:11:29 10° NNE
Cosmos 2237 Rocket 2.3 23:09:08 36° SW 23:11:28 74° WNW 23:17:08 10° NNE
Meteor 1-4 Rocket 3.0 23:13:35 10° N 23:16:45 52° ENE 23:16:45 52° ENE
USA 267 3.2 23:14:47 26° SE 23:18:48 89° SW 23:25:23 10° NW
Cosmos 1816 Rocket 4.4 23:17:16 44° S 23:19:20 78° E 23:25:28 10° N
Cosmos 1455 3.3 23:17:07 10° NNW 23:20:34 32° W 23:20:36 32° W
Cosmos 1184 Rocket 4.1 23:22:45 33° WNW 23:22:45 33° WNW 23:25:34 10° N
Cosmos 2369 Rocket 4.2 23:18:24 10° N 23:22:57 23° NE 23:27:27 10° E
ATLAS CENTAUR R/B 3.9 23:23:15 10° W 23:24:30 12° WSW 23:24:30 12° WSW
Okean 1-7 Rocket 4.0 23:27:36 47° WSW 23:28:25 55° W 23:32:49 10° N
Cosmos 1777 Rocket 3.9 23:26:42 10° NNW 23:32:01 88° ENE 23:33:25 51° SSE
Cosmos-2242 4.1 23:28:17 10° N 23:32:21 35° ENE 23:33:23 31° ESE
Cosmos 2034 Rocket 4.0 23:27:31 10° NNW 23:33:41 70° W 23:35:44 43° SSW
Cosmos 2058 Rocket 4.3 23:40:15 10° NNW 23:44:02 28° W 23:44:34 27° WSW
Cosmos 2297 3.8 23:38:32 10° NNW 23:44:11 69° ENE 23:46:31 36° SE
Cosmos 1812 Rocket 3.4 23:40:23 10° N 23:44:46 83° E 23:45:17 68° SSE
Cosmos 2278 Rocket 3.2 23:40:03 10° NW 23:44:56 30° WSW 23:45:51 29° WSW
Meteor 1-11 4.1 23:44:20 49° S 23:45:55 81° E 23:51:32 10° NNE
Cosmos 724 4.3 23:41:59 10° NNW 23:48:13 83° ENE 23:50:58 35° SE
